{"data":{"norad_id":65222,"epoch":"2026-09-20T10:54:24.539616Z","epoch_age_seconds":121752,"freshness":"FRESH","line1":"1 65222U 25176AA  26263.45445069  .00016787  00000+0  50662-3 0  9994","line2":"2 65222  53.1607 324.2466 0001443  52.1113 308.0020 15.34413905 62997","mean_motion":15.34413905,"eccentricity":0.0001443,"inclination_deg":53.1607,"raan_deg":324.2466,"arg_perigee_deg":52.1113,"mean_anomaly_deg":308.002,"bstar":0.00050662,"rev_number":6299,"period_min":93.846907624315,"perigee_km":461.67478464587,"apogee_km":463.64903921185,"semimajor_km":6840.7989119289,"source":"CELESTRAK","updated_at":"2026-09-21T09:00:35.538585Z"}}